Weather History for Mineral Point, WI

Change the Weather History Date:

Tuesday, November 6, 2012

  Actual Average (KLNR) Record (KLNR)
Temperature  
Mean Temperature 34 °F -  
Max Temperature 37 °F 47 °F 69 °F (2001)
Min Temperature 30 °F 30 °F 21 °F (2010)
Degree Days  
Heating Degree Days 32    
Moisture  
Dew Point 32 °F    
Average Humidity 91    
Maximum Humidity 100    
Minimum Humidity 80    
Precipitation  
Precipitation 0.07 in - - ()
Sea Level Pressure  
Sea Level Pressure 29.90 in    
Wind  
Wind Speed 6 mph (SSE)    
Max Wind Speed 10 mph    
Max Gust Speed -    
Visibility 3 miles    
Events Fog , Rain , Snow    
Averages and records for this station are not official NWS values.
T = Trace of Precipitation, MM = Missing Value Source: NWS Daily Summary

Daily Weather History Graph

Daily Weather History Graph

Search for Another Location

Airport:

Trip Planner

Search our weather history database for the weather conditions in past years. The results will help you decide how hot, cold, wet, or windy it might be!

Date:

Astronomy

Nov. 06, 2012 Rise Set
Actual Time 6:42 AM CST 4:46 PM CST
Civil Twilight 6:12 AM CST 5:16 PM CST
Nautical Twilight 5:38 AM CST 5:49 PM CST
Astronomical Twilight 5:05 AM CST 6:23 PM CST
Moon 11:27 PM CST (11/6) 12:33 PM CST (11/6)
Length of Visible Light 11h 03m
Length of Day
10h 04m
Waning Gibbous, 53% of the Moon is Illuminated
Nov 6
Waning Gibbous
Nov 6
Last Quarter
Nov 13
New
Nov 20
First Quarter
Nov 28
Full

Hourly Weather History & Observations

Time (CST) Temp. Windchill Dew Point Humidity Pressure Visibility Wind Dir Wind Speed Gust Speed Precip Events Conditions
12:15 AM 32.0 °F 27.5 °F 26.6 °F 80% 30.08 in 10.0 mi SSE 4.6 mph - N/A   Clear
12:35 AM 32.0 °F 28.7 °F 26.6 °F 80% 30.07 in 10.0 mi SSE 3.5 mph - N/A   Clear
12:55 AM 32.0 °F 27.5 °F 26.6 °F 80% 30.07 in 10.0 mi SSE 4.6 mph - N/A   Clear
1:15 AM 32.0 °F 26.4 °F 26.6 °F 80% 30.06 in 10.0 mi SE 5.8 mph - N/A   Clear
1:35 AM 30.2 °F 23.4 °F 26.6 °F 86% 30.03 in 10.0 mi ESE 6.9 mph - N/A   Clear
1:55 AM 30.2 °F 24.3 °F 26.6 °F 86% 30.03 in 10.0 mi SE 5.8 mph - N/A   Clear
2:15 AM 30.2 °F 24.3 °F 26.6 °F 86% 30.02 in 10.0 mi SE 5.8 mph - N/A   Clear
2:35 AM 32.0 °F 24.8 °F 26.6 °F 80% 30.02 in 10.0 mi SSE 8.1 mph - N/A   Clear
2:55 AM 32.0 °F 25.6 °F 26.6 °F 80% 30.02 in 10.0 mi SSE 6.9 mph - N/A   Clear
3:15 AM 30.2 °F 23.4 °F 26.6 °F 86% 30.02 in 7.0 mi SSE 6.9 mph - N/A   Clear
3:35 AM 30.2 °F 21.9 °F 26.6 °F 86% 30.01 in 7.0 mi SSE 9.2 mph - N/A   Clear
3:55 AM 30.2 °F 23.4 °F 26.6 °F 86% 30.00 in 7.0 mi SSE 6.9 mph - N/A   Scattered Clouds
4:15 AM 32.0 °F 24.8 °F 28.4 °F 87% 29.99 in 7.0 mi SSE 8.1 mph - N/A   Overcast
4:35 AM 32.0 °F 24.8 °F 28.4 °F 87% 29.97 in 7.0 mi SSE 8.1 mph - N/A   Overcast
4:55 AM 32.0 °F 24.2 °F 28.4 °F 87% 29.96 in 7.0 mi SSE 9.2 mph - N/A   Overcast
5:15 AM 32.0 °F 24.8 °F 30.2 °F 93% 29.96 in 7.0 mi SSE 8.1 mph - N/A   Overcast
5:35 AM 32.0 °F 24.8 °F 30.2 °F 93% 29.96 in 7.0 mi SSE 8.1 mph - N/A   Overcast
5:55 AM 32.0 °F 24.8 °F 30.2 °F 93% 29.95 in 7.0 mi SSE 8.1 mph - N/A   Overcast
6:15 AM 33.8 °F 27.7 °F 30.2 °F 87% 29.94 in 7.0 mi SSE 6.9 mph - N/A   Overcast
6:35 AM 33.8 °F 27.0 °F 30.2 °F 87% 29.94 in 7.0 mi SSE 8.1 mph - N/A   Overcast
6:55 AM 33.8 °F 27.7 °F 32.0 °F 93% 29.94 in 5.0 mi SSE 6.9 mph - N/A   Overcast
7:15 AM 33.8 °F 27.7 °F 32.0 °F 93% 29.94 in 5.0 mi South 6.9 mph - N/A   Overcast
7:35 AM 33.8 °F 27.0 °F 32.0 °F 93% 29.94 in 3.0 mi SSE 8.1 mph - N/A Snow Light Snow
7:55 AM 33.8 °F 27.0 °F 32.0 °F 93% 29.93 in 2.0 mi SSE 8.1 mph - N/A Snow Light Snow
8:15 AM 33.8 °F 27.0 °F 32.0 °F 93% 29.92 in 1.0 mi SSE 8.1 mph - N/A Snow Light Snow
8:35 AM 33.8 °F 26.4 °F 32.0 °F 93% 29.92 in 1.2 mi SSE 9.2 mph - N/A Snow Light Snow
8:55 AM 33.8 °F 27.0 °F 32.0 °F 93% 29.92 in 1.2 mi SSE 8.1 mph - N/A Snow Light Snow
9:15 AM 33.8 °F 27.0 °F 32.0 °F 93% 29.91 in 0.8 mi SSE 8.1 mph - N/A Snow Light Snow
9:35 AM 33.8 °F 27.7 °F 32.0 °F 93% 29.91 in 0.5 mi SSE 6.9 mph - 0.02 in Snow Light Snow
9:55 AM 33.8 °F 27.7 °F 32.0 °F 93% 29.91 in 0.5 mi SSE 6.9 mph - 0.03 in Snow Light Snow
10:15 AM 33.8 °F 27.0 °F 32.0 °F 93% 29.90 in 0.5 mi SSE 8.1 mph - 0.01 in Snow Light Snow
10:35 AM 33.8 °F 27.0 °F 32.0 °F 93% 29.90 in 0.5 mi SSE 8.1 mph - 0.02 in Snow Light Snow
10:55 AM 33.8 °F 26.4 °F 32.0 °F 93% 29.89 in 0.8 mi SSE 9.2 mph - 0.02 in Snow Light Snow
11:35 AM 33.8 °F 26.4 °F 32.0 °F 93% 29.87 in 0.8 mi SSE 9.2 mph - N/A Snow Light Snow
11:55 AM 33.8 °F 26.4 °F 32.0 °F 93% 29.85 in 0.8 mi SSE 9.2 mph - N/A Snow Light Snow
12:15 PM 33.8 °F 26.4 °F 32.0 °F 93% 29.84 in 0.8 mi SSE 9.2 mph - N/A Snow Light Snow
12:35 PM 33.8 °F 27.0 °F 32.0 °F 93% 29.84 in 0.8 mi SSE 8.1 mph - N/A Snow Light Snow
12:55 PM 35.6 °F 29.9 °F 33.8 °F 93% 29.83 in 1.0 mi SSE 6.9 mph - N/A Snow Light Snow
1:15 PM 35.6 °F 28.6 °F 33.8 °F 93% 29.82 in 1.2 mi SSE 9.2 mph - 0.01 in Snow Light Snow
1:35 PM 35.6 °F 28.6 °F 33.8 °F 93% 29.82 in 1.8 mi SSE 9.2 mph - 0.01 in   Overcast
1:55 PM 35.6 °F 28.0 °F 33.8 °F 93% 29.82 in 1.5 mi SSE 10.4 mph - 0.01 in Snow Light Snow
2:15 PM 35.6 °F 29.9 °F 33.8 °F 93% 29.82 in 1.5 mi South 6.9 mph - N/A   Overcast
2:35 PM 35.6 °F 29.2 °F 33.8 °F 93% 29.81 in 1.8 mi SSE 8.1 mph - N/A   Drizzle
2:55 PM 35.6 °F 28.6 °F 33.8 °F 93% 29.81 in 1.0 mi SSE 9.2 mph - N/A Rain Rain
3:15 PM 35.6 °F 29.9 °F 33.8 °F 93% 29.82 in 0.8 mi SSE 6.9 mph - N/A Rain Rain
3:35 PM 37.4 °F 32.8 °F 35.6 °F 93% 29.82 in 0.8 mi SSE 5.8 mph - N/A   Drizzle
4:15 PM 37.4 °F 33.8 °F 35.6 °F 93% 29.82 in 0.8 mi SSE 4.6 mph - N/A Rain Light Rain
4:35 PM 37.4 °F 33.8 °F 35.6 °F 93% 29.83 in 0.8 mi South 4.6 mph - 0.01 in Rain Light Rain
4:55 PM 37.4 °F - 35.6 °F 93% 29.83 in 1.2 mi Calm Calm - 0.01 in   Drizzle
5:15 PM 37.4 °F - 35.6 °F 93% 29.84 in 1.2 mi Calm Calm - N/A   Drizzle
5:35 PM 37.4 °F - 35.6 °F 93% 29.84 in 1.5 mi Calm Calm - N/A   Light Drizzle
5:55 PM 37.4 °F - 35.6 °F 93% 29.84 in 1.2 mi Calm Calm - N/A   Overcast
6:15 PM 37.4 °F - 35.6 °F 93% 29.84 in 1.5 mi Calm Calm - N/A   Overcast
6:35 PM 37.4 °F - 35.6 °F 93% 29.84 in 1.2 mi Calm Calm - N/A   Overcast
6:55 PM 37.4 °F - 35.6 °F 93% 29.84 in 1.2 mi Calm Calm - N/A   Overcast
7:15 PM 37.4 °F 34.9 °F 35.6 °F 93% 29.85 in 1.8 mi WSW 3.5 mph - N/A   Overcast
7:35 PM 37.4 °F 34.9 °F 35.6 °F 93% 29.84 in 2.5 mi WSW 3.5 mph - N/A   Overcast
7:55 PM 37.4 °F - 35.6 °F 93% 29.84 in 2.5 mi Calm Calm - N/A   Overcast
8:15 PM 35.6 °F 30.7 °F 35.6 °F 100% 29.85 in 0.5 mi West 5.8 mph - N/A Fog Fog
8:35 PM 35.6 °F - 35.6 °F 100% 29.85 in 0.2 mi Calm Calm - N/A Fog Fog
8:55 PM 37.4 °F - 35.6 °F 93% 29.86 in 0.5 mi Calm Calm - N/A Fog Fog
9:15 PM 35.6 °F - 35.6 °F 100% 29.86 in 0.5 mi Calm Calm - N/A Fog Fog
9:35 PM 37.4 °F 34.9 °F 35.6 °F 93% 29.86 in 1.0 mi North 3.5 mph - N/A   Overcast
9:55 PM 37.4 °F 34.9 °F 35.6 °F 93% 29.86 in 4.0 mi North 3.5 mph - N/A   Overcast
10:15 PM 37.4 °F 34.9 °F 35.6 °F 93% 29.86 in 3.0 mi WNW 3.5 mph - N/A   Overcast
10:35 PM 37.4 °F 34.9 °F 35.6 °F 93% 29.86 in 1.2 mi WNW 3.5 mph - N/A   Overcast
10:55 PM 37.4 °F - 35.6 °F 93% 29.86 in 0.8 mi Calm Calm - N/A   Overcast
11:15 PM 37.4 °F - 35.6 °F 93% 29.87 in 1.0 mi Calm Calm - N/A   Overcast
11:35 PM 37.4 °F - 35.6 °F 93% 29.87 in 0.5 mi Calm Calm - N/A Fog Fog
11:55 PM 37.4 °F 34.9 °F 35.6 °F 93% 29.88 in 1.0 mi North 3.5 mph - N/A   Overcast